This demonstration page uses our WeatherBlox Daily Observations layout. Learn more.

Left ArrowRight Arrow

36.19886, -115.1175

Hourly Observations for June 25, 2022

Temp ( °F °C ) Dew Point ( °F °C ) Humidity (%) Winds ( mph kmh ) Pressure ( in mb ) Visibility ( mi km ) Precip ( " mm )
12:53 am 00:53 Clear 86 30 34 1.1 15 15 W 3 6 29.80 1009 10 16 0.00 0.00
1:53 am 01:53 Clear 83 28.3 34 1.1 17 17 Calm 29.81 1010 10 16 0.00 0.00
2:53 am 02:53 Clear 84 28.9 31 -0.6 15 15 NE 6 9 29.81 1010 10 16 0.00 0.00
3:53 am 03:53 Clear 79 26.1 36 2.2 21 21 NNW 6 9 29.83 1010 10 16 0.00 0.00
4:53 am 04:53 Clear 78 25.6 36 2.2 22 22 NNW 3 6 29.85 1011 10 16 0.00 0.00
5:53 am 05:53 Sunny 77 25 36 2.2 23 23 NW 7 11 29.87 1012 10 16 0.00 0.00
6:53 am 06:53 Sunny 82 27.8 35 1.7 18 18 NW 5 7 29.89 1012 10 16 0.00 0.00
7:53 am 07:53 Sunny 87 30.6 38 3.3 18 18 NNW 3 6 29.90 1013 10 16 0.00 0.00
8:53 am 08:53 Sunny 91 32.8 35 1.7 14 14 E 5 7 29.92 1013 10 16 0.00 0.00
9:53 am 09:53 Sunny 95 35 29 -1.7 9 9 E 7 11 29.92 1013 10 16 0.00 0.00
10:53 am 10:53 Sunny 97 36.1 35 1.7 11 11 undefined N/A 29.92 1013 10 16 0.00 0.00
11:53 am 11:53 Sunny 99 37.2 33 0.6 10 10 undefined N/A 29.91 1013 10 16 0.00 0.00
12:53 pm 12:53 Sunny 101 38.3 37 2.8 11 11 ESE 10 17 29.88 1012 10 16 0.00 0.00
1:53 pm 13:53 Sunny 103 39.4 38 3.3 11 11 S 8 13 29.85 1011 10 16 0.00 0.00
2:53 pm 14:53 Sunny 104 40 39 3.9 11 11 ESE 16 26 29.83 1010 10 16 0.00 0.00
3:53 pm 15:53 Sunny 103 39.4 39 3.9 11 11 VRB 3 6 29.81 1010 10 16 0.00 0.00
4:53 pm 16:53 Sunny 104 40 38 3.3 10 10 SW 6 9 29.79 1009 10 16 0.00 0.00
5:53 pm 17:53 Sunny 104 40 38 3.3 10 10 SE 8 13 29.78 1009 10 16 0.00 0.00
6:53 pm 18:53 Sunny 103 39.4 37 2.8 10 10 SSE 7 11 29.78 1009 10 16 0.00 0.00
7:53 pm 19:53 Sunny 101 38.3 37 2.8 11 11 ESE 6 9 29.79 1009 10 16 0.00 0.00
8:53 pm 20:53 Clear 99 37.2 36 2.2 11 11 ESE 9 15 29.81 1010 10 16 0.00 0.00
9:53 pm 21:53 Clear 98 36.7 35 1.7 11 11 SSE 10 17 29.84 1010 10 16 0.00 0.00
10:53 pm 22:53 Clear 95 35 36 2.2 13 13 E 9 15 29.86 1011 10 16 0.00 0.00
11:53 pm 23:53 Clear 95 35 34 1.1 12 12 S 10 17 29.86 1011 10 16 0.00 0.00

Powered by AerisWeather